Culdrose, United Kingdom

11:16 AM BST on May 21, 2018 (GMT +0100)
Culdrose Navy

Weather History for EGDR - October, 2010

Change the Weather History Date:

Wednesday, October 27, 2010

  Actual Average Record
Temperature  
Mean Temperature 55 °F -  
Max Temperature 59 °F 52 °F 62 °F (2005)
Min Temperature 51 °F 44 °F 32 °F (2012)
Degree Days  
Heating Degree Days 10    
Growing Degree Days 5 (Base 50)    
Moisture  
Dew Point 54 °F    
Average Humidity 92    
Maximum Humidity 100    
Minimum Humidity 81    
Precipitation  
Precipitation 0.00 in - - ()
Sea Level Pressure  
Sea Level Pressure 30.05 in    
Wind  
Wind Speed 13 mph ()    
Max Wind Speed 23 mph    
Max Gust Speed 37 mph    
Visibility 5.0 miles    
Events Rain    
Averages and records for this station are not official NWS values.
T = Trace of Precipitation, MM = Missing Value Source: Averaged Metar Reports

Daily Weather History Graph

Daily Weather History Graph

Search for Another Location

Airport or City:

Astronomy

Oct. 27, 2010 Rise Set
Actual Time 8:02 AM BST 6:06 PM BST
Civil Twilight 7:28 AM BST 6:40 PM BST
Nautical Twilight 6:50 AM BST 7:18 PM BST
Astronomical Twilight 6:13 AM BST 7:55 PM BST
Moon 8:51 PM BST (10/27) 12:48 PM BST (10/27)
Length of Visible Light 11h 11m
Length of Day
10h 04m
Waning Gibbous, 81% of the Moon is Illuminated
Oct 27
Waning Gibbous
Oct 30
Last Quarter
Nov 6
New
Nov 13
First Quarter
Nov 21
Full

Hourly Weather History & Observations

Time (BST) Temp. Dew Point Humidity Pressure Visibility Wind Dir Wind Speed Gust Speed Precip Events Conditions
12:50 AM 57 °F 54 °F 85% 30.07 in 4 mi SW 20.7 mph - -   Haze
12:50 AM 57.2 °F 53.6 °F 88% 30.06 in 3.7 mi SW 20.7 mph 35.7 mph N/A   Haze
1:50 AM 55.4 °F 55.4 °F 100% 30.04 in 1.9 mi SW 21.9 mph 35.7 mph N/A   Overcast
2:50 AM 55.4 °F 55.4 °F 100% 30.04 in 1.9 mi SW 23.0 mph 36.8 mph N/A Rain Light Rain Showers
3:50 AM 57.2 °F 55.4 °F 94% 30.04 in 2.5 mi SW 20.7 mph 33.4 mph N/A Rain Light Rain Showers
4:50 AM 57.2 °F 55.4 °F 94% 30.01 in 1.9 mi West 11.5 mph - N/A   Overcast
5:50 AM 57.2 °F 55.4 °F 94% 30.04 in 2.5 mi West 8.1 mph - N/A   Overcast
6:50 AM 56 °F 54 °F 92% 30.05 in 4 mi West 8.1 mph - -   Mist
6:50 AM 55.4 °F 53.6 °F 94% 30.04 in 4.3 mi West 8.1 mph - N/A   Overcast
7:50 AM 51.8 °F 50.0 °F 94% 30.24 in 6.2 mi NW 5.8 mph - N/A   Mostly Cloudy
8:40 AM 55.4 °F 53.6 °F 94% 30.06 in 4.3 mi West 10.4 mph - N/A   Haze
8:50 AM 55.4 °F 53.6 °F 94% 30.06 in 4.3 mi West 9.2 mph - N/A   Haze
9:05 AM 55.4 °F 53.6 °F 94% 30.06 in 3.7 mi West 6.9 mph - N/A   Haze
9:50 AM 56 °F 55 °F 95% 30.08 in 4 mi West 6.9 mph - -   Mist
9:50 AM 55.4 °F 55.4 °F 100% 30.06 in 4.3 mi West 6.9 mph - N/A   Scattered Clouds
10:50 AM 57.2 °F 55.4 °F 94% 30.06 in 4.3 mi West 6.9 mph - N/A   Haze
11:50 AM 57.2 °F 55.4 °F 94% 30.06 in 5.0 mi WSW 10.4 mph - N/A   Haze
12:50 PM 58 °F 55 °F 86% 30.09 in 5 mi WSW 10.4 mph - -   Haze
12:50 PM 57.2 °F 55.4 °F 94% 30.06 in 5.0 mi WSW 10.4 mph - N/A   Haze
1:50 PM 57.2 °F 55.4 °F 94% 30.06 in 6.2 mi WSW 10.4 mph - N/A   Mostly Cloudy
2:50 PM 57.2 °F 53.6 °F 88% 30.04 in 6.2 mi WSW 9.2 mph - N/A   Mostly Cloudy
3:50 PM 58 °F 54 °F 81% 30.05 in 7 mi WSW 13.8 mph - -   Haze
3:50 PM 57.2 °F 53.6 °F 88% 30.04 in 6.2 mi WSW 13.8 mph - N/A   Haze
4:50 PM 57.2 °F 53.6 °F 88% 30.04 in 6.2 mi WSW 13.8 mph - N/A   Haze
5:50 PM 55.4 °F 51.8 °F 88% 30.04 in 6.2 mi SW 13.8 mph - N/A   Partly Cloudy
6:50 PM 55 °F 53 °F 91% 30.05 in 9 mi SW 16.1 mph - -   Partly Cloudy
6:50 PM 55.4 °F 53.6 °F 94% 30.04 in 6.2 mi SW 16.1 mph - N/A   Scattered Clouds
7:50 PM 55.4 °F 53.6 °F 94% 30.04 in 6.2 mi SW 16.1 mph - N/A   Mostly Cloudy
8:50 PM 55.4 °F 51.8 °F 88% 30.04 in 6.2 mi WSW 15.0 mph - N/A   Scattered Clouds
9:50 PM 55 °F 53 °F 88% 30.03 in 9 mi SW 16.1 mph - -   Scattered Clouds
9:50 PM 55.4 °F 51.8 °F 88% 30.01 in 6.2 mi SW 16.1 mph - N/A   Partly Cloudy
10:50 PM 55.4 °F 51.8 °F 88% 30.04 in 6.2 mi WSW 16.1 mph - N/A   Scattered Clouds
11:50 PM 55.4 °F 53.6 °F 94% 30.04 in 6.2 mi SW 17.3 mph - N/A   Mostly Cloudy